[[{"header":{"parameterUnit":"m.s-1","parameterCategory":1,"la1":30.2992,"la2":30.254,"lo1":-89.0895,"lo2":-89.0443,"dy":0.0025,"dx":0.0025,"nx":19,"ny":19,"refTime":"2026-03-24T03:00:00:Z","depth":0,"parameterNumber":2,"parameterNumberName":"U-component_of_WINDS"},"data":[0,0,0,-2.404,-2.404,-2.4069,-2.4069,-2.4122,-2.4123,0,0,0,0,0,0,0,0,0,0,0,-2.404,-2.4041,-2.4039,-2.404,-2.4069,-2.4069,-2.4122,-2.4123,0,0,0,0,0,0,0,0,0,0,0,-2.404,-2.4041,-2.4042,-2.4041,-2.4069,-2.4069,-2.4122,-2.4095,0,0,0,0,0,0,0,0,0,0,-2.4064,-2.4073,-2.4041,-2.4042,-2.4041,-2.4069,-2.4069,-2.4093,-2.4096,-2.4116,0,-2.4135,0,-2.413,-2.4127,-2.4128,0,0,0,-2.4034,-2.4071,-2.407,-2.4042,-2.4041,-2.4069,-2.4054,-2.4095,-2.4098,-2.412,-2.4136,-2.4137,-2.4131,-2.4128,-2.4128,-2.4263,-2.4264,0,0,-2.4032,-2.4051,-2.4068,-2.4073,-2.4069,-2.4054,-2.4055,-2.4097,-2.4115,-2.4136,-2.4138,-2.4132,-2.4128,-2.4129,-2.4262,-2.4263,0,0,0,-2.4032,-2.405,-2.4048,-2.4071,-2.4075,-2.4055,-2.4057,-2.4113,-2.4111,-2.4139,-2.4132,-2.4129,-2.4129,-2.4261,-2.4262,-2.4329,0,0,0,-2.4031,-2.405,-2.4047,-2.4059,-2.4075,-2.4095,-2.4073,-2.4108,-2.4112,-2.4132,-2.4129,-2.413,-2.426,-2.4262,-2.4325,-2.4358,0,0,0,-2.4035,-2.405,-2.4057,-2.406,-2.4073,-2.4093,-2.4093,-2.4109,-2.4109,-2.4128,-2.413,-2.4259,-2.4261,-2.4321,-2.4352,-2.4401,0,0,0,-2.4045,-2.4115,-2.4059,-2.4134,-2.4073,-2.4133,-2.4093,-2.4137,-2.4161,-2.4129,-2.426,-2.4262,-2.432,-2.4348,-2.4397,-2.4447,-2.4468,0,0,-2.4144,-2.4128,-2.417,-2.4121,-2.4197,-2.4128,-2.4213,-2.4217,-2.4202,-2.4243,-2.4246,-2.4326,-2.4351,-2.44,-2.458,-2.4598,0,0,0,-2.4208,-2.424,-2.4255,-2.4279,-2.4284,-2.4291,-2.428,-2.4282,-2.4316,-2.4227,-2.4355,-2.4369,-2.4397,-2.442,-2.4435,-2.4459,-2.4273,-2.4273,-2.4272,-2.4376,-2.4352,-2.4422,-2.4402,-2.4426,-2.4414,-2.4431,-2.4431,-2.44,-2.4431,-2.4444,-2.4556,-2.4584,-2.4595,-2.462,-2.4466,-2.4466,-2.4467,-2.4467,-2.452,-2.4562,-2.4518,-2.4571,-2.4546,-2.459,-2.4581,-2.4558,-2.4596,-2.4544,-2.4567,-2.4516,-2.4615,-2.4636,-2.4472,-2.4471,-2.447,-2.447,-2.4469,-2.463,-2.4646,-2.4646,-2.4678,-2.4706,-2.4682,-2.4721,-2.4696,-2.4672,-2.4695,-2.4708,-2.4707,-2.4705,-2.4702,-2.4703,-2.4703,-2.4703,-2.4704,-2.4704,-2.4744,-2.4742,-2.4778,-2.4789,-2.4801,-2.4814,-2.4802,-2.4814,-2.482,-2.4799,-2.4799,-2.4767,-2.4628,-2.4595,-2.471,-2.4709,-2.4708,-2.4707,-2.4707,-2.4905,-2.4864,-2.492,-2.4932,-2.4943,-2.4973,-2.4939,-2.4965,-2.4971,-2.4991,-2.4953,-2.4853,-2.4835,-2.4823,-2.4796,-2.4956,-2.4956,-2.4956,-2.4956,-2.4999,-2.4987,-2.5039,-2.506,-2.5078,-2.5054,-2.5118,-2.511,-2.5094,-2.5097,-2.5069,-2.503,-2.5019,-2.5008,-2.4991,-2.4966,-2.5165,-2.5166,-2.5166,-2.5098,-2.5086,-2.5146,-2.513,-2.5137,-2.5143,-2.5204,-2.5231,-2.5205,-2.5174,-2.5098,-2.509,-2.5026,-2.5006,-2.4977,-2.4953,-2.4905,0,0]},{"header":{"parameterUnit":"m.s-1","parameterCategory":1,"la1":30.2992,"la2":30.254,"lo1":-89.0895,"lo2":-89.0443,"dy":0.0025,"dx":0.0025,"nx":19,"ny":19,"refTime":"2026-03-24T03:00:00:Z","depth":0,"parameterNumber":3,"parameterNumberName":"V-component_of_WINDS"},"data":[0,0,0,-2.7565,-2.7567,-2.7621,-2.7621,-2.7693,-2.7693,0,0,0,0,0,0,0,0,0,0,0,-2.7553,-2.7553,-2.7565,-2.7567,-2.7621,-2.7621,-2.7693,-2.7693,0,0,0,0,0,0,0,0,0,0,0,-2.7553,-2.7553,-2.7554,-2.7567,-2.7621,-2.7621,-2.7692,-2.765,0,0,0,0,0,0,0,0,0,0,-2.7597,-2.7589,-2.7553,-2.7554,-2.7567,-2.7621,-2.7621,-2.7648,-2.7653,-2.767,0,-2.7688,0,-2.7692,-2.7698,-2.7699,0,0,0,-2.7564,-2.7585,-2.7597,-2.7554,-2.7568,-2.7621,-2.7596,-2.7651,-2.7656,-2.7676,-2.7689,-2.7691,-2.7693,-2.7699,-2.7699,-2.7813,-2.7814,0,0,-2.7561,-2.7564,-2.7593,-2.7601,-2.7595,-2.7594,-2.7597,-2.7654,-2.7667,-2.7689,-2.7693,-2.7694,-2.7699,-2.77,-2.7813,-2.7813,0,0,0,-2.7554,-2.7562,-2.7572,-2.7598,-2.7608,-2.7596,-2.7599,-2.7664,-2.7668,-2.7693,-2.7695,-2.77,-2.7701,-2.7812,-2.7813,-2.7851,0,0,0,-2.7552,-2.7558,-2.7571,-2.7573,-2.7607,-2.7637,-2.7609,-2.7664,-2.767,-2.7695,-2.77,-2.7702,-2.7811,-2.7812,-2.7849,-2.7869,0,0,0,-2.7548,-2.7558,-2.7567,-2.7574,-2.7597,-2.7636,-2.7642,-2.7665,-2.7671,-2.7699,-2.7702,-2.7811,-2.7812,-2.7846,-2.7865,-2.7901,0,0,0,-2.7544,-2.7598,-2.7568,-2.7629,-2.7597,-2.766,-2.7642,-2.7688,-2.7716,-2.77,-2.7811,-2.7813,-2.7846,-2.7863,-2.7899,-2.7933,-2.7948,0,0,-2.7615,-2.7607,-2.7643,-2.7617,-2.7687,-2.7651,-2.7726,-2.7747,-2.7746,-2.779,-2.7793,-2.785,-2.7865,-2.7901,-2.8025,-2.8037,0,0,0,-2.7666,-2.7693,-2.771,-2.7739,-2.7758,-2.7776,-2.7786,-2.7794,-2.7832,-2.777,-2.7871,-2.788,-2.7901,-2.7918,-2.7928,-2.7946,-2.782,-2.782,-2.782,-2.7771,-2.7768,-2.7827,-2.7831,-2.7858,-2.7869,-2.7891,-2.7903,-2.789,-2.7914,-2.7928,-2.8004,-2.8023,-2.8031,-2.805,-2.7944,-2.7945,-2.7945,-2.7945,-2.7875,-2.7912,-2.7895,-2.7947,-2.7943,-2.7986,-2.7997,-2.7987,-2.8025,-2.7993,-2.8011,-2.7978,-2.8044,-2.806,-2.7948,-2.7947,-2.7947,-2.7947,-2.7946,-2.7945,-2.7962,-2.7972,-2.8014,-2.8045,-2.8046,-2.8084,-2.8078,-2.8072,-2.809,-2.8104,-2.8104,-2.8103,-2.8097,-2.8097,-2.8098,-2.8098,-2.8098,-2.8098,-2.8013,-2.8024,-2.8058,-2.8084,-2.8102,-2.8124,-2.8135,-2.8152,-2.8169,-2.8161,-2.8161,-2.8146,-2.8051,-2.8027,-2.8102,-2.8102,-2.8101,-2.8101,-2.81,-2.8123,-2.8097,-2.8151,-2.8169,-2.8199,-2.8231,-2.8223,-2.8257,-2.827,-2.8289,-2.827,-2.82,-2.8192,-2.8184,-2.8165,-2.827,-2.827,-2.827,-2.827,-2.8182,-2.8178,-2.8232,-2.8261,-2.8289,-2.8287,-2.8347,-2.8355,-2.836,-2.8368,-2.8351,-2.8324,-2.8317,-2.8313,-2.8302,-2.8284,-2.8418,-2.8418,-2.8418,-2.825,-2.8248,-2.8301,-2.8307,-2.833,-2.835,-2.8406,-2.8439,-2.8438,-2.8424,-2.8374,-2.8367,-2.8325,-2.8311,-2.8297,-2.828,-2.8247,0,0]}]]